Voltar ao catálogo

SL-16 DEB

AtivoLEO
NORAD 22474·DEBRIS·🇷🇺 Russia

Lançado Dec 25, 1992 de Baikonur Cosmodrome

Loading…

Próximas Passagens (próximas 24 horas)

TLE

AtualizadoSource: Space-Track

Época: Sep 14, 2026, 11:27 UTC

1 22474U 92093FP  26257.47760740  .00002415  00000-0  11067-2 0  9998
2 22474  71.2970  76.2664 0145197   7.9784 352.3601 14.16855515702987

Acompanhe SL-16 DEB em tempo real com AllMySat

Download on the App Store